Colorado Springs, CO

3:18 PM MST on February 07, 2016 (GMT -0700)
City Of Colorado Springs Municipal

Weather History for KCOS - September, 2013

Change the Weather History Date:

Tuesday, September 24, 2013

  Actual Average Record
Temperature  
Mean Temperature 56 °F 58 °F  
Max Temperature 70 °F 71 °F 88 °F (1992)
Min Temperature 41 °F 44 °F 31 °F (2000)
Degree Days  
Heating Degree Days 9 8  
Month to date heating degree days 42 105  
Since 1 July heating degree days 52 136  
Cooling Degree Days 0 0  
Month to date cooling degree days 87 35  
Year to date cooling degree days 689 453  
Growing Degree Days 6 (Base 50)    
Moisture  
Dew Point 32 °F    
Average Humidity 45    
Maximum Humidity 66    
Minimum Humidity 23    
Precipitation  
Precipitation 0.00 in 0.03 in 1.02 in (1955)
Month to date precipitation 4.80 1.05  
Year to date precipitation 18.46 14.84  
Snow  
Snow 0.00 in 0.00 in 1.00 in (2000)
Month to date snowfall T 0.1  
Since 1 July snowfall T 0.1  
Since 1 September snowfall T 0.1  
Snow Depth 0.00 in    
Sea Level Pressure  
Sea Level Pressure 30.00 in    
Wind  
Wind Speed 8 mph (ESE)    
Max Wind Speed 21 mph    
Max Gust Speed 24 mph    
Visibility 10 miles    
Events      
T = Trace of Precipitation, MM = Missing Value Source: NWS Daily Summary

Daily Weather History Graph

Daily Weather History Graph

Search for Another Location

Airport or City:

Trip Planner

Search our weather history database for the weather conditions in past years. The results will help you decide how hot, cold, wet, or windy it might be!

Date:

Astronomy

Sep. 24, 2013 Rise Set
Actual Time 6:48 AM MDT 6:52 PM MDT
Civil Twilight 6:22 AM MDT 7:18 PM MDT
Nautical Twilight 5:50 AM MDT 7:49 PM MDT
Astronomical Twilight 5:19 AM MDT 8:20 PM MDT
Moon 10:14 PM MDT (9/24) 12:02 PM MDT (9/24)
Length of Visible Light 12h 56m
Length of Day
12h 03m
Waning Gibbous, 72% of the Moon is Illuminated
Sep 24
Waning Gibbous
Sep 26
Last Quarter
Oct 4
New
Oct 11
First Quarter
Oct 18
Full

Hourly Weather History & Observations

Time (MDT) Temp. Windchill Dew Point Humidity Pressure Visibility Wind Dir Wind Speed Gust Speed Precip Events Conditions
12:54 AM 46.9 °F - 30.0 °F 52% 29.99 in 10.0 mi North 8.1 mph - N/A   Clear
1:54 AM 46.9 °F - 30.9 °F 54% 30.00 in 10.0 mi NNW 5.8 mph - N/A   Clear
2:54 AM 48.0 °F - 28.9 °F 48% 29.99 in 10.0 mi NNW 5.8 mph - N/A   Clear
3:54 AM 46.0 °F 41.9 °F 30.0 °F 54% 30.01 in 10.0 mi NNW 8.1 mph - N/A   Clear
4:54 AM 43.0 °F 40.3 °F 30.9 °F 62% 30.04 in 10.0 mi North 4.6 mph - N/A   Clear
5:54 AM 43.0 °F 39.5 °F 30.0 °F 60% 30.06 in 10.0 mi North 5.8 mph - N/A   Partly Cloudy
6:54 AM 41.0 °F 37.1 °F 30.9 °F 67% 30.12 in 10.0 mi North 5.8 mph - N/A   Scattered Clouds
7:54 AM 48.0 °F - 33.1 °F 56% 30.13 in 10.0 mi North 3.5 mph - N/A   Scattered Clouds
8:54 AM 61.0 °F - 26.1 °F 26% 30.09 in 10.0 mi Calm Calm - N/A   Scattered Clouds
9:54 AM 63.0 °F - 27.0 °F 26% 30.08 in 10.0 mi East 4.6 mph - N/A   Scattered Clouds
10:54 AM 64.9 °F - 28.9 °F 26% 30.05 in 10.0 mi SE 6.9 mph - N/A   Scattered Clouds
11:54 AM 66.0 °F - 28.9 °F 25% 30.04 in 10.0 mi Variable 3.5 mph - N/A   Partly Cloudy
12:54 PM 66.9 °F - 34.0 °F 30% 30.04 in 10.0 mi SSE 12.7 mph - N/A   Clear
1:54 PM 69.1 °F - 34.0 °F 27% 29.99 in 10.0 mi SSE 11.5 mph 17.3 mph N/A   Clear
2:54 PM 70.0 °F - 30.9 °F 24% 29.96 in 10.0 mi SSE 18.4 mph - N/A   Clear
3:54 PM 70.0 °F - 32.0 °F 25% 29.94 in 10.0 mi SSE 15.0 mph 23.0 mph N/A   Clear
4:54 PM 69.1 °F - 34.0 °F 27% 29.95 in 10.0 mi SSE 16.1 mph - N/A   Clear
5:54 PM 66.9 °F - 34.0 °F 30% 29.94 in 10.0 mi South 17.3 mph - N/A   Clear
6:44 PM 62.6 °F - 37.4 °F 39% 30.07 in 10.0 mi SSE 11.5 mph - N/A   Partly Cloudy
6:54 PM 61.0 °F - 37.0 °F 41% 29.97 in 10.0 mi SSE 11.5 mph - N/A   Partly Cloudy
7:54 PM 60.1 °F - 36.0 °F 41% 29.95 in 10.0 mi ESE 8.1 mph - N/A   Clear
8:54 PM 57.0 °F - 36.0 °F 45% 29.90 in 10.0 mi ESE 6.9 mph - N/A   Clear
9:54 PM 57.0 °F - 34.0 °F 42% 29.88 in 10.0 mi ESE 4.6 mph - N/A   Clear
10:54 PM 57.0 °F - 34.0 °F 42% 29.85 in 10.0 mi Calm Calm - N/A   Clear
11:54 PM 48.9 °F - 37.0 °F 64% 29.84 in 10.0 mi East 4.6 mph - N/A   Clear